DW1086 Weather Reports


time (UTC)temp
C
wind
direction
speed
KPH
gust
KPH
rain 1hr
cm
rain 24hr
cm
rain mn
cm
humidity
%
barometer
mb
20260506143103 17 205 11.3 20.9 0.00 0.00 0.00 74 1008.8
20260506142104 18 214 8.0 22.5 0.00 0.00 0.00 75 1008.9
20260506141604 18 196 9.7 25.7 0.00 0.00 0.00 75 1009.0
20260506141103 18 208 11.3 22.5 0.00 0.00 0.00 74 1009.0
20260506140104 18 213 14.5 27.4 0.00 0.00 0.00 76 1009.0
20260506135604 17 210 9.7 16.1 0.00 0.00 0.00 76 1009.0
20260506135103 17 205 14.5 24.1 0.00 0.00 0.00 76 1009.1
20260506134604 17 222 9.7 32.2 0.00 0.00 0.00 77 1009.1
20260506134104 17 223 9.7 38.6 0.00 0.00 0.00 77 1009.1
20260506133603 17 217 11.3 32.2 0.00 0.00 0.00 76 1008.9
20260506133104 17 222 17.7 33.8 0.00 0.00 0.00 76 1008.9
20260506132103 17 205 16.1 27.4 0.00 0.00 0.00 76 1008.9
20260506131603 17 202 11.3 29.0 0.00 0.00 0.00 76 1008.8
20260506131103 17 214 9.7 19.3 0.00 0.00 0.00 76 1008.9
20260506130603 17 214 11.3 32.2 0.00 0.00 0.00 76 1009.0
20260506130103 17 218 11.3 25.7 0.00 0.00 0.00 76 1009.0
20260506125603 17 214 14.5 29.0 0.00 0.00 0.00 75 1009.0
20260506125103 17 215 12.9 27.4 0.00 0.00 0.00 75 1009.0
20260506124604 17 215 12.9 32.2 0.00 0.00 0.00 75 1008.8
20260506124103 17 214 11.3 22.5 0.00 0.00 0.00 75 1008.9
20260506123603 18 214 12.9 33.8 0.00 0.00 0.00 75 1009.0
20260506122603 17 210 16.1 27.4 0.00 0.00 0.00 76 1009.1
20260506122104 17 221 14.5 29.0 0.00 0.00 0.00 77 1009.1
20260506121604 17 203 12.9 25.7 0.00 0.00 0.00 78 1009.3
20260506121103 17 207 16.1 35.4 0.00 0.00 0.00 79 1009.3
20260506120603 17 212 12.9 32.2 0.00 0.00 0.00 80 1009.3
20260506114604 16 222 12.9 32.2 0.00 0.00 0.00 83 1009.1
20260506114104 16 212 9.7 29.0 0.00 0.00 0.00 84 1009.1
20260506113604 15 215 12.9 24.1 0.00 0.00 0.00 84 1009.1
20260506113103 15 219 9.7 20.9 0.00 0.00 0.00 85 1008.9
20260506112103 15 200 11.3 32.2 0.00 0.00 0.00 85 1009.1
20260506111604 15 203 12.9 29.0 0.00 0.00 0.00 86 1009.1
20260506111104 14 215 11.3 29.0 0.00 0.00 0.00 86 1009.1
20260506110104 14 203 14.5 32.2 0.00 0.00 0.00 86 1009.1
20260506105603 14 211 11.3 27.4 0.00 0.00 0.00 86 1009.1
20260506104603 14 197 11.3 25.7 0.00 0.00 0.00 86 1009.0
20260506104104 14 201 12.9 27.4 0.00 0.00 0.00 86 1009.0
20260506103604 14 205 11.3 29.0 0.00 0.00 0.00 86 1009.0
20260506103104 13 210 12.9 27.4 0.00 0.00 0.00 86 1009.0
20260506102604 13 207 12.9 24.1 0.00 0.00 0.00 86 1009.0
20260506102103 13 211 11.3 32.2 0.00 0.00 0.00 86 1009.0
20260506101604 13 205 11.3 24.1 0.00 0.00 0.00 86 1009.0
20260506100604 13 211 14.5 27.4 0.00 0.00 0.00 86 1009.0
20260506100104 13 205 14.5 32.2 0.00 0.00 0.00 85 1009.0
20260506095103 13 204 12.9 24.1 0.00 0.00 0.00 85 1009.0
20260506094603 13 214 11.3 27.4 0.00 0.00 0.00 85 1008.9
20260506094104 13 210 11.3 27.4 0.00 0.00 0.00 85 1008.9
20260506093603 13 209 11.3 25.7 0.00 0.00 0.00 85 1008.9
20260506093104 13 208 14.5 27.4 0.00 0.00 0.00 85 1008.9
20260506092603 13 206 12.9 24.1 0.00 0.00 0.00 85 1008.9
20260506092103 13 211 11.3 19.3 0.00 0.00 0.00 84 1008.9
20260506091604 13 204 11.3 19.3 0.00 0.00 0.00 84 1008.9
20260506091104 13 208 9.7 20.9 0.00 0.00 0.00 84 1009.1
20260506090604 13 207 16.1 32.2 0.00 0.00 0.00 84 1009.1
20260506090104 13 216 11.3 27.4 0.00 0.00 0.00 84 1009.1
20260506085604 13 205 9.7 22.5 0.00 0.00 0.00 84 1009.2
20260506085104 13 213 11.3 22.5 0.00 0.00 0.00 84 1009.2
20260506084603 13 216 9.7 22.5 0.00 0.00 0.00 84 1009.2
20260506084104 13 222 9.7 29.0 0.00 0.00 0.00 84 1009.2
20260506083603 13 214 14.5 35.4 0.00 0.00 0.00 84 1009.4
20260506083103 13 207 9.7 25.7 0.00 0.00 0.00 84 1009.4
20260506082104 13 203 9.7 19.3 0.00 0.00 0.00 83 1009.3
20260506081604 13 208 11.3 20.9 0.00 0.00 0.00 83 1009.4
20260506081103 14 205 11.3 25.7 0.00 0.00 0.00 83 1009.4
20260506080604 14 208 12.9 32.2 0.00 0.00 0.00 83 1009.3
20260506080104 14 213 11.3 32.2 0.00 0.00 0.00 83 1009.3
20260506073103 14 208 11.3 20.9 0.00 0.00 0.00 82 1009.6
20260506072103 14 217 11.3 20.9 0.00 0.00 0.00 82 1009.6
20260506071604 14 214 11.3 29.0 0.00 0.00 0.00 82 1009.6
20260506071104 14 210 12.9 33.8 0.00 0.00 0.00 82 1009.6
20260506070603 14 204 11.3 20.9 0.00 0.00 0.00 82 1009.6
20260506070103 14 207 11.3 22.5 0.00 0.00 0.00 82 1009.7
20260506062104 15 218 9.7 25.7 0.00 0.00 0.00 80 1009.4
20260506061603 15 208 12.9 22.5 0.00 0.00 0.00 80 1009.4
20260506060603 15 217 14.5 27.4 0.00 0.00 0.00 80 1009.4
20260506051104 15 197 8.0 27.4 0.00 0.00 0.00 78 1009.8
20260506050103 15 214 16.1 29.0 0.00 0.00 0.00 77 1009.8
20260506045104 15 210 11.3 38.6 0.00 0.00 0.00 76 1009.8
20260506044604 15 223 16.1 29.0 0.00 0.00 0.00 76 1009.8
20260506044104 16 206 16.1 33.8 0.00 0.00 0.00 76 1009.7
20260506043603 16 210 11.3 27.4 0.00 0.00 0.00 75 1009.8
20260506043104 16 210 11.3 32.2 0.00 0.00 0.00 75 1009.7
20260506042604 16 216 14.5 27.4 0.00 0.00 0.00 75 1009.7
20260506042104 16 219 17.7 29.0 0.00 0.00 0.00 75 1009.7
20260506041604 16 212 16.1 35.4 0.00 0.00 0.00 74 1009.7
20260506041105 16 216 14.5 38.6 0.00 0.00 0.00 74 1009.7
20260506034604 16 213 12.9 37.0 0.00 0.00 0.00 73 1009.8
20260506034103 17 206 14.5 33.8 0.00 0.00 0.00 73 1009.5
20260506033603 17 214 17.7 32.2 0.00 0.00 0.00 73 1009.5
20260506033103 17 219 16.1 32.2 0.00 0.00 0.00 73 1009.5
20260506032603 17 213 16.1 33.8 0.00 0.00 0.00 72 1009.6
20260506032104 17 216 16.1 35.4 0.00 0.00 0.00 72 1009.6
20260506031104 17 213 19.3 46.7 0.00 0.00 0.00 72 1009.5
20260506030604 17 205 19.3 38.6 0.00 0.00 0.00 72 1009.7
20260506025603 17 213 19.3 35.4 0.00 0.00 0.00 71 1009.7
20260506024604 17 218 16.1 33.8 0.00 0.00 0.00 70 1009.5
20260506024104 17 213 16.1 32.2 0.00 0.00 0.00 70 1009.7
20260506023604 17 212 16.1 32.2 0.00 0.00 0.00 70 1009.7
20260506023104 17 214 17.7 32.2 0.00 0.00 0.00 69 1009.7
20260506022603 17 223 12.9 35.4 0.00 0.00 0.00 69 1009.6
20260506022103 17 224 14.5 32.2 0.00 0.00 0.00 69 1009.6
20260506021604 17 225 9.7 46.7 0.00 0.00 0.00 69 1009.6
20260506021103 17 224 17.7 32.2 0.00 0.00 0.00 68 1009.7
20260506020603 17 216 11.3 32.2 0.00 0.00 0.00 68 1009.5
20260506020103 17 221 19.3 37.0 0.00 0.00 0.00 68 1009.5
20260506015603 17 208 17.7 40.2 0.00 0.00 0.00 68 1009.5
20260506015104 17 211 16.1 37.0 0.00 0.00 0.00 68 1009.5
20260506014604 17 218 17.7 51.5 0.00 0.00 0.00 68 1009.5
20260506014103 17 213 12.9 35.4 0.00 0.00 0.00 67 1009.5
20260506013603 17 211 16.1 41.8 0.00 0.00 0.00 67 1009.5
20260506012104 17 208 14.5 37.0 0.00 0.00 0.00 66 1009.5
20260506011603 17 217 19.3 37.0 0.00 0.00 0.00 66 1009.3
20260506011104 18 226 14.5 32.2 0.00 0.00 0.00 66 1009.3
20260506010604 17 217 19.3 35.4 0.00 0.00 0.00 66 1009.2
20260506010103 17 230 19.3 32.2 0.00 0.00 0.00 66 1008.7
20260506005604 17 210 14.5 32.2 0.00 0.00 0.00 66 1008.7
20260506005103 18 217 19.3 51.5 0.00 0.00 0.00 65 1008.7
20260506004103 18 207 16.1 33.8 0.00 0.00 0.00 65 1008.7
20260506003104 18 215 11.3 29.0 0.00 0.00 0.00 65 1008.4
20260506002603 18 224 20.9 33.8 0.00 0.00 0.00 64 1008.4
20260506002104 18 216 19.3 35.4 0.00 0.00 0.00 64 1008.4
20260506001604 18 226 19.3 33.8 0.00 0.00 0.00 64 1008.4
20260506001103 18 212 14.5 33.8 0.00 0.00 0.00 64 1008.4
20260506000603 18 218 20.9 38.6 0.00 0.00 0.00 63 1008.4
20260506000103 18 213 19.3 46.7 0.00 0.00 0.00 63 1008.1
20260505235603 18 207 16.1 29.0 0.00 0.00 0.00 63 1008.1
20260505235103 18 214 17.7 41.8 0.00 0.00 0.00 62 1008.1
20260505234604 18 221 12.9 33.8 0.00 0.00 0.00 62 1008.1
20260505234103 18 216 17.7 35.4 0.00 0.00 0.00 62 1008.0
20260505233103 18 208 11.3 41.8 0.00 0.00 0.00 61 1008.0
20260505232603 18 218 14.5 33.8 0.00 0.00 0.00 60 1007.7
20260505232104 19 228 19.3 29.0 0.00 0.00 0.00 60 1007.7
20260505231603 19 221 16.1 33.8 0.00 0.00 0.00 60 1007.7
20260505231104 19 231 16.1 37.0 0.00 0.00 0.00 59 1007.7
20260505230603 19 225 17.7 41.8 0.00 0.00 0.00 59 1007.9
20260505225103 20 219 20.9 38.6 0.00 0.00 0.00 57 1007.9
20260505224604 20 214 19.3 46.7 0.00 0.00 0.00 58 1007.9
20260505224103 20 226 19.3 37.0 0.00 0.00 0.00 58 1007.8
20260505223603 20 227 20.9 41.8 0.00 0.00 0.00 57 1007.8
20260505223104 20 210 27.4 45.1 0.00 0.00 0.00 57 1007.8
20260505222604 20 210 25.7 69.2 0.00 0.00 0.00 58 1007.8
20260505222103 20 221 14.5 29.0 0.00 0.00 0.00 58 1007.8
20260505220604 20 213 12.9 32.2 0.00 0.00 0.00 58 1007.6
20260505215603 20 209 14.5 35.4 0.00 0.00 0.00 58 1007.6
20260505215104 21 201 16.1 32.2 0.00 0.00 0.00 57 1007.6
20260505214603 21 204 14.5 25.7 0.00 0.00 0.00 57 1007.6
20260505214103 21 204 16.1 32.2 0.00 0.00 0.00 57 1007.6
20260505213603 21 215 14.5 32.2 0.00 0.00 0.00 56 1007.5
20260505213104 21 217 9.7 32.2 0.00 0.00 0.00 56 1007.5
20260505212104 21 216 17.7 38.6 0.00 0.00 0.00 56 1007.1
20260505211603 21 207 20.9 40.2 0.00 0.00 0.00 56 1007.1
20260505211104 21 203 19.3 37.0 0.00 0.00 0.00 56 1007.2
20260505210103 21 217 11.3 25.7 0.00 0.00 0.00 58 1007.2
20260505205103 22 204 11.3 20.9 0.00 0.00 0.00 57 1007.3
20260505204603 22 205 11.3 25.7 0.00 0.00 0.00 57 1007.3
20260505204104 22 208 9.7 20.9 0.00 0.00 0.00 55 1007.3
20260505203603 22 208 11.3 25.7 0.00 0.00 0.00 56 1007.3
20260505203103 22 206 14.5 22.5 0.00 0.00 0.00 56 1007.3
20260505202104 22 210 19.3 33.8 0.00 0.00 0.00 53 1007.5
20260505201603 23 206 9.7 24.1 0.00 0.00 0.00 54 1007.5
20260505200604 23 193 8.0 19.3 0.00 0.00 0.00 55 1007.5
20260505195604 23 199 11.3 25.7 0.00 0.00 0.00 54 1007.6
20260505195103 23 186 9.7 22.5 0.00 0.00 0.00 54 1007.6
20260505194603 23 224 14.5 33.8 0.00 0.00 0.00 55 1008.4
20260505193604 23 224 14.5 32.2 0.00 0.00 0.00 54 1008.4
20260505193103 23 193 9.7 19.3 0.00 0.00 0.00 55 1008.4
20260505192603 23 198 8.0 22.5 0.00 0.00 0.00 54 1008.4
20260505192103 23 200 14.5 29.0 0.00 0.00 0.00 54 1008.4
20260505191104 23 216 19.3 38.6 0.00 0.00 0.00 52 1008.6
20260505190603 24 202 8.0 22.5 0.00 0.00 0.00 53 1008.6
20260505185604 23 195 4.8 19.3 0.00 0.00 0.00 55 1008.7
20260505185103 23 200 9.7 25.7 0.00 0.00 0.00 54 1008.7
20260505184103 23 196 9.7 22.5 0.00 0.00 0.00 56 1008.8
20260505183604 23 200 12.9 32.2 0.00 0.00 0.00 56 1008.6
20260505182603 23 199 11.3 19.3 0.00 0.00 0.00 55 1008.6
20260505181604 23 197 16.1 32.2 0.00 0.00 0.00 55 1009.0
20260505181103 24 182 9.7 24.1 0.00 0.00 0.00 53 1009.0
20260505180604 23 218 8.0 27.4 0.00 0.00 0.00 59 1009.0
20260505180104 23 184 11.3 29.0 0.00 0.00 0.00 55 1009.0
20260505175604 23 213 11.3 24.1 0.00 0.00 0.00 55 1009.0
20260505175103 24 195 14.5 32.2 0.00 0.00 0.00 54 1009.0
20260505174603 24 187 9.7 20.9 0.00 0.00 0.00 54 1009.0
20260505174104 24 226 4.8 24.1 0.00 0.00 0.00 55 1009.0
20260505173604 24 215 12.9 22.5 0.00 0.00 0.00 56 1009.0
20260505173104 24 203 12.9 35.4 0.00 0.00 0.00 53 1009.0
20260505172604 24 203 9.7 24.1 0.00 0.00 0.00 52 1009.0
20260505172103 24 215 8.0 16.1 0.00 0.00 0.00 55 1009.1
20260505171604 24 209 11.3 20.9 0.00 0.00 0.00 55 1009.4
20260505170603 25 203 8.0 27.4 0.00 0.00 0.00 56 1009.4
20260505170104 25 224 9.7 22.5 0.00 0.00 0.00 52 1009.4
20260505165603 25 205 4.8 19.3 0.00 0.00 0.00 57 1009.4
20260505165104 24 221 9.7 20.9 0.00 0.00 0.00 57 1009.4
20260505164603 25 187 6.4 22.5 0.00 0.00 0.00 54 1009.5
20260505164103 25 209 8.0 19.3 0.00 0.00 0.00 55 1009.5
20260505163604 24 221 4.8 19.3 0.00 0.00 0.00 57 1009.5
20260505163104 24 206 8.0 19.3 0.00 0.00 0.00 56 1009.5
20260505162103 25 220 4.8 25.7 0.00 0.00 0.00 57 1009.5
20260505161603 25 214 9.7 25.7 0.00 0.00 0.00 57 1009.5
20260505160603 25 218 9.7 22.5 0.00 0.00 0.00 51 1009.9
20260505152603 23 207 9.7 19.3 0.00 0.00 0.00 53 1010.2
20260505152103 23 197 8.0 16.1 0.00 0.00 0.00 56 1010.2
20260505151604 23 207 8.0 14.5 0.00 0.00 0.00 56 1010.5
20260505151104 23 214 14.5 22.5 0.00 0.00 0.00 56 1010.5
20260505150603 23 218 11.3 29.0 0.00 0.00 0.00 54 1010.5